Hourly Data Report for October 22, 2013

All times are specified in Local Standard Time (LST). Add 1 hour to adjust for Daylight Saving Time where and when it is observed.

HALL BEACH A
NUNAVUT

68°46'33.000" N
81°14'33.000" W
9.10 m
2402354
71293
YUX

Download Data

Hourly Data (October 2013)
Hourly Data Report for October 22, 2013
Temp Definition
°C
Dew Point Temp Definition
°C
Rel Hum Definition
%
Wind Dir Definition
10's deg

Wind Spd Definition
km/h
Visibility Definition
km
Stn Press Definition
kPa
Hmdx Definition


Wind Chill Definition


Weather Definition


TIME
00:00 Legend Double Dagger -12.3 -13.5 91 36 18 16.1 102.03   -20 LegendNANA
01:00 Legend Double Dagger -12.5 -13.7 91 34 17 16.1 102.03   -20 LegendNANA
02:00 Legend Double Dagger -12.8 -14.1 90 33 17 16.1 102.02   -21 LegendNANA
03:00 Legend Double Dagger -12.3 -13.5 91 33 21 16.1 102.01   -21 LegendNANA
04:00 Legend Double Dagger -9.8 -10.9 92 34 21 16.1 102.00   -18 LegendNANA
05:00 Legend Double Dagger -5.5 -6.1 95 3 26 16.1 101.97   -13 LegendNANA
06:00 Legend Double Dagger -7.8 -8.7 93 33 17 16.1 101.95   -14 LegendNANA
07:00 Legend Double Dagger -5.3 -5.8 96 3 26 16.1 101.93   -13 LegendNANA
08:00 Legend Double Dagger -5.5 -6.2 95 2 28 16.1 101.91   -13 LegendNANA
09:00 Legend Double Dagger -5.4 -6.0 95 1 26 16.1 101.91   -13 LegendNANA
10:00 Legend Double Dagger -5.5 -6.0 96 1 24 16.1 101.88   -13 LegendNANA
11:00 Legend Double Dagger -5.3 -5.8 96 36 24 16.1 101.83   -13 LegendNANA
12:00 Legend Double Dagger -5.3 -5.8 96 1 28 16.1 101.81   -13 LegendNANA
13:00 Legend Double Dagger -4.8 -5.3 96 2 24 16.1 101.79   -12 LegendNANA
14:00 Legend Double Dagger -4.8 -5.3 96 1 24 16.1 101.79   -12 LegendNANA
15:00 Legend Double Dagger -4.8 -5.3 96 2 18 16.1 101.78   -11 LegendNANA
16:00 Legend Double Dagger -4.9 -5.4 96 3 21 16.1 101.77   -12 LegendNANA
17:00 Legend Double Dagger -4.8 -5.3 96 36 18 16.1 101.78   -11 LegendNANA
18:00 Legend Double Dagger -5.0 -5.5 96 1 18 16.1 101.77   -11 LegendNANA
19:00 Legend Double Dagger -4.9 -5.4 96 36 24 16.1 101.76   -12 LegendNANA
20:00 Legend Double Dagger -4.9 -5.4 96 36 24 3.6 101.72   -12 LegendNANA
21:00 Legend Double Dagger -5.1 -5.6 96 36 22 16.1 101.70   -12 LegendNANA
22:00 Legend Double Dagger -5.5 -6.0 96 35 24 16.1 101.67   -13 LegendNANA
23:00 Legend Double Dagger -6.3 -7.0 95 35 21 16.1 101.67   -13 LegendNANA

Notes on Data Quality.

Legend

  • E = Estimated
  • M = Missing
  • NA = Not Available
  • ‡ = Partner data that is not subject to review by the National Climate Archives
Date modified: